User: anonymous   Login
Location: LDNL
(36.4545°S, 141.6685°E)
Time: 11:58:09
(UTC+10:00)
Language:

S-56A Canister/Altair - Orbit

View from above orbital plane
View from above orbital plane
View from above satellite
View from above satellite

Ground track
Ground track

The orbit data is extracted from the following two-line orbital elements,

1 00082U 61004B   22219.25465278 -.00000040  00000-0 -80325-5 0  9995
2 00082  38.8603 187.3299 1172286 251.6801  95.3061 12.26021024903645
Epoch (UTC): 07 August 2022 06:06:42
Eccentricity: 0.1172286
inclination: 38.8603°
perigee height: 635 km
apogee height: 2498 km
right ascension of ascending node: 187.3299°
argument of perigee: 251.6801°
revolutions per day: 12.26021024
mean anomaly at epoch: 95.3061°
orbit number at epoch: 90364

The dashed part of the orbit path shows where the satellite is in the earth's shadow,  

DLR